Location: Ermatingen
(47.6706°N, 9.0857°E)
Time: 08:31:40
(UTC+00:00)

Cosmos 1428 Rocket - Pass Details

Date: 06 December 2021
Orbit: 949 x 987 km, 82.9° (Epoch: 26 January)

Event Time Altitude Azimuth Distance (km) Brightness Sun altitude
Rises 05:02:18 0° 165° (SSE) 3,627 7.9 -18.5°
Reaches altitude 10° 05:04:54 10° 159° (SSE) 2,681 7.3 -18.0°
Maximum altitude 05:10:37 43° 90° (E) 1,312 5.7 -17.1°
Drops below altitude 10° 05:16:20 10° 21° (NNE) 2,685 6.9 -16.2°
Sets 05:18:56 0° 15° (NNE) 3,633 7.5 -15.8°
